Time,TemperatureF,DewpointF,PressureIn,WindDirection,WindDirectionDegrees,WindSpeedMPH,WindSpeedGustMPH,Humidity,HourlyPrecipIn,Conditions,Clouds,dailyrainin,SolarRadiationWatts/m^2,SoftwareType,DateUTC
2013-04-08 00:02:00,50.0,31.0,-100.00,SSE,157,6.0,8.0,49,0.00,,,-99.99,0.000000,,2013-04-08 06:02:00,
2013-04-08 00:12:00,51.0,26.0,-100.00,SSE,161,6.0,7.0,37,0.00,,,-99.99,0.000000,,2013-04-08 06:12:00,
2013-04-08 00:21:00,52.0,26.0,-100.00,South,191,5.0,7.0,36,0.00,,,-99.99,0.000000,,2013-04-08 06:21:00,
2013-04-08 00:32:00,52.0,24.0,-100.00,SSE,158,7.0,9.0,34,0.00,,,-99.99,0.000000,,2013-04-08 06:32:00,
2013-04-08 00:42:00,52.0,25.0,-100.00,South,169,6.0,11.0,34,0.00,,,-99.99,0.000000,,2013-04-08 06:42:00,
2013-04-08 00:50:00,54.0,26.0,-100.00,SW,229,7.0,12.0,33,0.00,,,-99.99,0.000000,,2013-04-08 06:50:00,
2013-04-08 00:52:00,53.0,25.0,-100.00,SSE,155,7.0,9.0,33,0.00,,,-99.99,0.000000,,2013-04-08 06:52:00,
2013-04-08 01:02:00,54.0,19.0,-100.00,SSE,147,8.0,12.0,25,0.00,,,-99.99,0.000000,,2013-04-08 07:02:00,
2013-04-08 01:12:00,54.0,26.0,-100.00,SW,229,7.0,12.0,33,0.00,,,-99.99,0.000000,,2013-04-08 07:12:00,
2013-04-08 01:21:00,54.0,26.0,-100.00,SW,229,7.0,12.0,33,0.00,,,-99.99,0.000000,,2013-04-08 07:21:00,
2013-04-08 01:32:00,54.0,26.0,-100.00,SW,229,7.0,12.0,33,0.00,,,-99.99,0.000000,,2013-04-08 07:32:00,
2013-04-08 01:42:00,54.0,26.0,-100.00,SW,229,7.0,12.0,33,0.00,,,-99.99,0.000000,,2013-04-08 07:42:00,
2013-04-08 02:33:00,59.0,17.0,-100.00,South,188,5.0,10.0,19,0.00,,,-99.99,0.000000,,2013-04-08 08:33:00,
2013-04-08 02:43:00,56.0,22.0,-100.00,SSE,148,9.0,16.0,27,0.00,,,-99.99,0.000000,,2013-04-08 08:43:00,
2013-04-08 02:52:00,56.0,22.0,-100.00,South,185,7.0,11.0,26,0.00,,,-99.99,0.000000,,2013-04-08 08:52:00,
2013-04-08 03:01:00,57.0,21.0,-100.00,South,191,8.0,14.0,24,0.00,,,-99.99,0.000000,,2013-04-08 09:01:00,
2013-04-08 03:12:00,57.0,21.0,-100.00,SSW,194,7.0,13.0,24,0.00,,,-99.99,0.000000,,2013-04-08 09:12:00,
2013-04-08 03:22:00,57.0,22.0,-100.00,SW,217,7.0,12.0,26,0.00,,,-99.99,0.000000,,2013-04-08 09:22:00,
2013-04-08 03:32:00,56.0,24.0,-100.00,West,260,7.0,11.0,29,0.00,,,-99.99,0.000000,,2013-04-08 09:32:00,
2013-04-08 03:42:00,54.0,26.0,-100.00,WSW,250,5.0,9.0,33,0.00,,,-99.99,0.000000,,2013-04-08 09:42:00,
2013-04-08 03:52:00,54.0,25.0,-100.00,SW,228,5.0,10.0,32,0.00,,,-99.99,0.000000,,2013-04-08 09:52:00,
2013-04-08 04:02:00,54.0,26.0,-100.00,West,275,4.0,6.0,34,0.00,,,-99.99,0.000000,,2013-04-08 10:02:00,
2013-04-08 04:12:00,53.0,27.0,-100.00,ENE,63,6.0,9.0,36,0.00,,,-99.99,0.000000,,2013-04-08 10:12:00,
2013-04-08 04:32:00,52.0,29.0,-100.00,ENE,58,9.0,14.0,41,0.00,,,-99.99,0.000000,,2013-04-08 10:32:00,
2013-04-08 04:42:00,51.0,31.0,-100.00,East,86,8.0,14.0,47,0.00,,,-99.99,0.000000,,2013-04-08 10:42:00,
2013-04-08 04:52:00,50.0,34.0,-100.00,East,94,6.0,13.0,55,0.00,,,-99.99,0.000000,,2013-04-08 10:52:00,
2013-04-08 05:02:00,47.0,35.0,-100.00,East,88,6.0,11.0,62,0.00,,,-99.99,0.000000,,2013-04-08 11:02:00,
2013-04-08 05:12:00,47.0,36.0,-100.00,ENE,77,6.0,9.0,66,0.00,,,-99.99,0.000000,,2013-04-08 11:12:00,
2013-04-08 05:22:00,45.0,38.0,-100.00,SE,132,8.0,12.0,76,0.02,,,-99.99,0.000000,,2013-04-08 11:22:00,
2013-04-08 05:32:00,45.0,37.0,-100.00,SE,124,8.0,10.0,73,0.02,,,-99.99,0.000000,,2013-04-08 11:32:00,
2013-04-08 05:42:00,44.0,36.0,-100.00,SSE,161,7.0,11.0,73,0.02,,,-99.99,0.000000,,2013-04-08 11:42:00,
2013-04-08 05:50:00,47.0,35.0,-100.00,South,180,10.0,15.0,63,0.02,,,-99.99,0.000000,,2013-04-08 11:50:00,
2013-04-08 05:52:00,45.0,36.0,-100.00,South,176,7.0,10.0,69,0.02,,,-99.99,0.000000,,2013-04-08 11:52:00,
2013-04-08 06:01:00,46.0,35.0,-100.00,South,177,9.0,12.0,65,0.02,,,-99.99,0.000000,,2013-04-08 12:01:00,
2013-04-08 06:12:00,47.0,35.0,-100.00,South,180,10.0,15.0,63,0.02,,,-99.99,0.000000,,2013-04-08 12:12:00,
2013-04-08 06:21:00,47.0,35.0,-100.00,South,180,10.0,15.0,63,0.02,,,-99.99,0.000000,,2013-04-08 12:21:00,
2013-04-08 06:32:00,47.0,35.0,-100.00,South,180,10.0,15.0,63,0.02,,,-99.99,0.000000,,2013-04-08 12:32:00,
2013-04-08 06:42:00,47.0,35.0,-100.00,South,180,10.0,15.0,63,0.02,,,-99.99,0.000000,,2013-04-08 12:42:00,
2013-04-08 07:22:00,46.0,35.0,-100.00,SSE,166,7.0,13.0,64,0.00,,,-99.99,1.000000,,2013-04-08 13:22:00,
2013-04-08 07:32:00,46.0,35.0,-100.00,South,178,7.0,12.0,65,0.00,,,-99.99,4.000000,,2013-04-08 13:32:00,
2013-04-08 07:43:00,46.0,36.0,-100.00,South,184,7.0,9.0,68,0.00,,,-99.99,6.000000,,2013-04-08 13:43:00,
2013-04-08 07:52:00,45.0,36.0,-100.00,SSW,207,4.0,6.0,70,0.00,,,-99.99,11.000000,,2013-04-08 13:52:00,
2013-04-08 08:02:00,45.0,36.0,-100.00,WSW,246,6.0,11.0,70,0.00,,,-99.99,28.000000,,2013-04-08 14:02:00,
2013-04-08 08:12:00,45.0,36.0,-100.00,WSW,250,8.0,12.0,71,0.00,,,-99.99,27.000000,,2013-04-08 14:12:00,
2013-04-08 08:21:00,45.0,35.0,-100.00,WSW,252,6.0,11.0,68,0.00,,,-99.99,55.000000,,2013-04-08 14:21:00,
2013-04-08 08:32:00,45.0,36.0,-100.00,WSW,240,5.0,7.0,68,0.00,,,-99.99,51.000000,,2013-04-08 14:32:00,
2013-04-08 08:42:00,45.0,38.0,-100.00,WSW,253,6.0,10.0,76,0.00,,,-99.99,17.000000,,2013-04-08 14:42:00,
2013-04-08 08:52:00,45.0,38.0,-100.00,WSW,240,4.0,7.0,77,0.00,,,-99.99,22.000000,,2013-04-08 14:52:00,
2013-04-08 09:01:00,44.0,38.0,-100.00,WSW,252,3.0,6.0,77,0.00,,,-99.99,9.000000,,2013-04-08 15:01:00,
2013-04-08 09:12:00,43.0,39.0,-100.00,South,184,3.0,4.0,85,0.00,,,-99.99,16.000000,,2013-04-08 15:12:00,
2013-04-08 09:21:00,42.0,39.0,-100.00,NW,308,5.0,8.0,89,0.03,,,-99.99,13.000000,,2013-04-08 15:21:00,
2013-04-08 09:33:00,41.0,39.0,-100.00,NW,320,6.0,10.0,92,0.03,,,-99.99,23.000000,,2013-04-08 15:33:00,
2013-04-08 09:42:00,41.0,39.0,-100.00,WNW,294,5.0,7.0,92,0.03,,,-99.99,46.000000,,2013-04-08 15:42:00,
2013-04-08 09:52:00,41.0,39.0,-100.00,WNW,302,6.0,9.0,92,0.03,,,-99.99,34.000000,,2013-04-08 15:52:00,
2013-04-08 10:02:00,40.0,38.0,-100.00,NW,313,8.0,12.0,92,0.03,,,-99.99,58.000000,,2013-04-08 16:02:00,
2013-04-08 10:12:00,40.0,39.0,-100.00,NW,311,5.0,8.0,93,0.03,,,-99.99,60.000000,,2013-04-08 16:12:00,
2013-04-08 10:22:00,40.0,39.0,-100.00,NW,318,4.0,8.0,93,0.04,,,-99.99,54.000000,,2013-04-08 16:22:00,
2013-04-08 10:32:00,40.0,39.0,-100.00,NW,318,4.0,8.0,93,0.04,,,-99.99,54.000000,,2013-04-08 16:32:00,
2013-04-08 10:42:00,40.0,37.0,-100.00,WNW,288,8.0,12.0,90,0.04,,,-99.99,45.000000,,2013-04-08 16:42:00,
2013-04-08 10:50:00,39.0,36.0,-100.00,West,270,8.0,11.0,89,0.04,,,-99.99,40.000000,,2013-04-08 16:50:00,
2013-04-08 10:52:00,40.0,37.0,-100.00,South,180,5.0,8.0,91,0.04,,,-99.99,51.000000,,2013-04-08 16:52:00,
2013-04-08 11:02:00,39.0,37.0,-100.00,SSE,159,7.0,14.0,90,0.04,,,-99.99,35.000000,,2013-04-08 17:02:00,
2013-04-08 11:11:00,39.0,36.0,-100.00,West,270,8.0,11.0,89,0.04,,,-99.99,40.000000,,2013-04-08 17:11:00,
2013-04-08 11:22:00,39.0,36.0,-100.00,West,270,8.0,11.0,89,0.04,,,-99.99,40.000000,,2013-04-08 17:22:00,
2013-04-08 11:32:00,39.0,36.0,-100.00,West,270,8.0,11.0,89,0.04,,,-99.99,40.000000,,2013-04-08 17:32:00,
2013-04-08 11:42:00,39.0,36.0,-100.00,West,270,8.0,11.0,89,0.04,,,-99.99,40.000000,,2013-04-08 17:42:00,
2013-04-08 12:23:00,40.0,38.0,-100.00,SE,124,4.0,6.0,93,0.05,,,-99.99,83.000000,,2013-04-08 18:23:00,
2013-04-08 12:32:00,39.0,37.0,-100.00,SE,126,5.0,8.0,91,0.05,,,-99.99,30.000000,,2013-04-08 18:32:00,
2013-04-08 12:42:00,39.0,37.0,-100.00,SE,132,5.0,7.0,92,0.05,,,-99.99,17.000000,,2013-04-08 18:42:00,
2013-04-08 12:52:00,39.0,37.0,-100.00,SSW,193,4.0,6.0,92,0.05,,,-99.99,32.000000,,2013-04-08 18:52:00,
2013-04-08 13:02:00,37.0,35.0,-100.00,West,262,7.0,11.0,92,0.05,,,-99.99,14.000000,,2013-04-08 19:02:00,
2013-04-08 13:12:00,37.0,34.0,-100.00,SW,234,7.0,12.0,91,0.05,,,-99.99,15.000000,,2013-04-08 19:12:00,
2013-04-08 13:22:00,37.0,35.0,-100.00,SW,230,2.0,5.0,93,0.05,,,-99.99,27.000000,,2013-04-08 19:22:00,
2013-04-08 13:33:00,38.0,36.0,-100.00,East,98,2.0,4.0,93,0.05,,,-99.99,81.000000,,2013-04-08 19:33:00,
2013-04-08 13:42:00,38.0,36.0,-100.00,SE,133,4.0,6.0,91,0.05,,,-99.99,53.000000,,2013-04-08 19:42:00,
2013-04-08 13:52:00,38.0,37.0,-100.00,East,98,5.0,10.0,93,0.05,,,-99.99,87.000000,,2013-04-08 19:52:00,
2013-04-08 14:02:00,39.0,37.0,-100.00,SW,216,4.0,11.0,93,0.05,,,-99.99,110.000000,,2013-04-08 20:02:00,
2013-04-08 14:12:00,39.0,36.0,-100.00,SW,221,5.0,11.0,90,0.05,,,-99.99,210.000000,,2013-04-08 20:12:00,
2013-04-08 14:22:00,40.0,37.0,-100.00,SE,137,3.0,7.0,90,0.07,,,-99.99,171.000000,,2013-04-08 20:22:00,
2013-04-08 14:32:00,39.0,36.0,-100.00,SE,127,4.0,7.0,89,0.07,,,-99.99,76.000000,,2013-04-08 20:32:00,
2013-04-08 14:42:00,39.0,36.0,-100.00,West,271,6.0,9.0,90,0.07,,,-99.99,54.000000,,2013-04-08 20:42:00,
2013-04-08 14:52:00,39.0,37.0,-100.00,WNW,300,5.0,9.0,92,0.07,,,-99.99,49.000000,,2013-04-08 20:52:00,
2013-04-08 15:01:00,39.0,36.0,-100.00,NW,319,6.0,9.0,91,0.07,,,-99.99,45.000000,,2013-04-08 21:01:00,
2013-04-08 15:12:00,39.0,37.0,-100.00,NW,311,6.0,11.0,92,0.07,,,-99.99,43.000000,,2013-04-08 21:12:00,
2013-04-08 15:21:00,39.0,37.0,-100.00,NW,316,6.0,10.0,92,0.01,,,-99.99,50.000000,,2013-04-08 21:21:00,
2013-04-08 15:32:00,39.0,37.0,-100.00,NW,313,7.0,11.0,90,0.01,,,-99.99,50.000000,,2013-04-08 21:32:00,
2013-04-08 15:42:00,39.0,37.0,-100.00,NW,320,7.0,11.0,91,0.01,,,-99.99,35.000000,,2013-04-08 21:42:00,
2013-04-08 15:52:00,40.0,37.0,-100.00,NW,313,6.0,10.0,90,0.01,,,-99.99,35.000000,,2013-04-08 21:52:00,
2013-04-08 16:02:00,40.0,37.0,-100.00,NW,326,7.0,13.0,90,0.01,,,-99.99,31.000000,,2013-04-08 22:02:00,
2013-04-08 16:12:00,40.0,37.0,-100.00,NW,312,7.0,10.0,90,0.01,,,-99.99,33.000000,,2013-04-08 22:12:00,
2013-04-08 16:22:00,40.0,37.0,-100.00,NW,312,7.0,10.0,90,0.01,,,-99.99,33.000000,,2013-04-08 22:22:00,
2013-04-08 16:32:00,40.0,37.0,-100.00,NW,312,7.0,10.0,90,0.01,,,-99.99,33.000000,,2013-04-08 22:32:00,
2013-04-08 16:42:00,40.0,37.0,-100.00,NW,312,7.0,10.0,90,0.01,,,-99.99,33.000000,,2013-04-08 22:42:00,
2013-04-08 17:32:00,41.0,37.0,-100.00,NNW,327,8.0,12.0,85,0.00,,,-99.99,42.000000,,2013-04-08 23:32:00,
2013-04-08 17:43:00,41.0,37.0,-100.00,NNW,330,7.0,10.0,86,0.00,,,-99.99,29.000000,,2013-04-08 23:43:00,
2013-04-08 17:52:00,41.0,38.0,-100.00,NNW,330,6.0,11.0,88,0.00,,,-99.99,29.000000,,2013-04-08 23:52:00,
2013-04-08 18:02:00,41.0,38.0,-100.00,NNW,330,6.0,11.0,88,0.00,,,-99.99,29.000000,,2013-04-09 00:02:00,
2013-04-08 18:12:00,41.0,38.0,-100.00,NW,323,10.0,15.0,89,0.00,,,-99.99,19.000000,,2013-04-09 00:12:00,
2013-04-08 18:21:00,41.0,37.0,-100.00,NW,320,11.0,16.0,88,0.01,,,-99.99,25.000000,,2013-04-09 00:21:00,
2013-04-08 18:31:00,41.0,37.0,-100.00,NW,320,11.0,16.0,88,0.01,,,-99.99,25.000000,,2013-04-09 00:31:00,
2013-04-08 18:42:00,41.0,37.0,-100.00,NW,321,10.0,15.0,88,0.01,,,-99.99,11.000000,,2013-04-09 00:42:00,
2013-04-08 18:52:00,41.0,37.0,-100.00,NW,324,10.0,15.0,88,0.01,,,-99.99,12.000000,,2013-04-09 00:52:00,
2013-04-08 19:02:00,40.0,37.0,-100.00,NW,310,11.0,18.0,89,0.01,,,-99.99,8.000000,,2013-04-09 01:02:00,
2013-04-08 19:12:00,40.0,38.0,-100.00,NW,317,10.0,15.0,90,0.01,,,-99.99,7.000000,,2013-04-09 01:12:00,
2013-04-08 19:21:00,40.0,38.0,-100.00,NW,313,13.0,19.0,90,0.01,,,-99.99,5.000000,,2013-04-09 01:21:00,
2013-04-08 19:32:00,40.0,37.0,-100.00,NNW,332,13.0,20.0,90,0.01,,,-99.99,3.000000,,2013-04-09 01:32:00,
2013-04-08 19:42:00,40.0,37.0,-100.00,NNW,330,15.0,23.0,89,0.01,,,-99.99,3.000000,,2013-04-09 01:42:00,
2013-04-08 19:52:00,40.0,36.0,-100.00,NW,326,16.0,22.0,88,0.01,,,-99.99,2.000000,,2013-04-09 01:52:00,
2013-04-08 20:02:00,39.0,36.0,-100.00,NW,320,13.0,20.0,89,0.01,,,-99.99,1.000000,,2013-04-09 02:02:00,
2013-04-08 20:21:00,39.0,35.0,-100.00,NNW,334,17.0,26.0,85,0.01,,,-99.99,0.000000,,2013-04-09 02:21:00,
2013-04-08 20:32:00,39.0,35.0,-100.00,NW,325,13.0,21.0,86,0.01,,,-99.99,0.000000,,2013-04-09 02:32:00,
2013-04-08 20:42:00,39.0,35.0,-100.00,NW,322,13.0,20.0,86,0.01,,,-99.99,0.000000,,2013-04-09 02:42:00,
2013-04-08 20:50:00,38.0,35.0,-100.00,NNW,333,13.0,25.0,87,0.01,,,-99.99,0.000000,,2013-04-09 02:50:00,
2013-04-08 20:52:00,38.0,34.0,-100.00,NNW,329,13.0,24.0,85,0.01,,,-99.99,0.000000,,2013-04-09 02:52:00,
2013-04-08 21:02:00,38.0,34.0,-100.00,NNW,330,12.0,21.0,86,0.01,,,-99.99,0.000000,,2013-04-09 03:02:00,
2013-04-08 21:12:00,38.0,35.0,-100.00,NNW,333,13.0,25.0,87,0.01,,,-99.99,0.000000,,2013-04-09 03:12:00,
2013-04-08 21:21:00,38.0,35.0,-100.00,NNW,333,13.0,25.0,87,0.01,,,-99.99,0.000000,,2013-04-09 03:21:00,
2013-04-08 21:32:00,38.0,35.0,-100.00,NNW,333,13.0,25.0,87,0.01,,,-99.99,0.000000,,2013-04-09 03:32:00,
2013-04-08 21:42:00,38.0,35.0,-100.00,NNW,333,13.0,25.0,87,0.01,,,-99.99,0.000000,,2013-04-09 03:42:00,
2013-04-08 22:23:00,37.0,33.0,-100.00,NW,304,6.0,9.0,85,0.00,,,-99.99,0.000000,,2013-04-09 04:23:00,
2013-04-08 22:33:00,38.0,33.0,-100.00,West,265,6.0,9.0,84,0.00,,,-99.99,0.000000,,2013-04-09 04:33:00,
2013-04-08 22:43:00,38.0,33.0,-100.00,WSW,246,5.0,17.0,83,0.00,,,-99.99,0.000000,,2013-04-09 04:43:00,
2013-04-08 22:53:00,38.0,33.0,-100.00,WSW,246,5.0,17.0,83,0.00,,,-99.99,0.000000,,2013-04-09 04:53:00,
2013-04-08 23:02:00,37.0,33.0,-100.00,WSW,257,10.0,19.0,85,0.00,,,-99.99,0.000000,,2013-04-09 05:02:00,
2013-04-08 23:12:00,37.0,33.0,-100.00,WSW,254,7.0,12.0,86,0.00,,,-99.99,0.000000,,2013-04-09 05:12:00,
2013-04-08 23:22:00,36.0,32.0,-100.00,West,264,5.0,11.0,84,0.02,,,-99.99,0.000000,,2013-04-09 05:22:00,
2013-04-08 23:32:00,36.0,32.0,-100.00,West,269,7.0,11.0,85,0.02,,,-99.99,0.000000,,2013-04-09 05:32:00,
2013-04-08 23:42:00,36.0,33.0,-100.00,WSW,247,5.0,10.0,87,0.02,,,-99.99,0.000000,,2013-04-09 05:42:00,
2013-04-08 23:52:00,36.0,33.0,-100.00,SW,230,3.0,6.0,88,0.02,,,-99.99,0.000000,,2013-04-09 05:52:00,